Tracking 19827 objects as of 22-Aug-2019
HD Live streaming from Space Station
objects crossing your sky now

HGS 4 (GALAXY 4)

Track HGS 4 (GALAXY 4) now!
HGS 4 (GALAXY 4) is classified as:


NORAD ID: 22694
Int'l Code: 1993-039A
Perigee: 35,753.8 km
Apogee: 35,832.2 km
Inclination: 14.5 °
Period: 1,436.1 minutes
Semi major axis: 42163 km
RCS: 28.88 m2 (large)
Launch date: June 25, 1993
Source: United States (US)
Launch site: FRENCH GUIANA (FRGUI)
aabbcc
Your satellite tracking list
Your tracking list is empty




NASA's NSSDC Master Catalog

Two Line Element Set (TLE):
1 22694U 93039A   19233.43302215 -.00000140  00000-0  00000+0 0  9990
2 22694  14.5102  15.2502 0009300 251.9755 296.3602  1.00274544 94007
Source of the keplerian elements: AFSPC